Location: Bergnerzell
(49.1816°N, 10.2565°E)
Time: 08:27:40
(UTC+00:00)

Nadezhda 1 Rocket - Pass Details

Date: 23 May 2024
Orbit: 941 x 1004 km, 83.0° (Epoch: 15 June)

Event Time Altitude Azimuth Distance (km) Brightness Sun altitude
Rises 01:04:50 0° 348° (NNW) 3,743 7.9 -16.1°
Reaches altitude 10° 01:07:23 10° 346° (NNW) 2,790 7.1 -15.9°
Maximum altitude 01:13:44 65° 266° (W) 1,099 4.1 -15.4°
Enters shadow 01:18:18 19° 190° (S) 2,156 5.2 -15.0°
